Temperature
23 24 24 24 24 24 24 23 23 23 24 23 23 22 21 21 20 19 19 18 17 16 15 15 15 15 16 16 16 16 16 16 16 16 16 16 16 16 16 16 16 16 16 16
23 24 24 24 24 23 23 23 23 23 23 23 22 21 21 20 19 18 17 16 16 15 15 14 15 15 15 15 15 16 16 16 16 16 16 15 15 15 15 15 15 15 15 15
24 25 24 23 23 23 23 23 23 23 23 23 22 21 21 20 18 17 16 15 15 14 14 14 14 14 14 14 14 15 15 15 15 15 15 15 15 15 14 14 14 14 14 14
24 24 24 23 24 23 23 24 23 23 22 22 22 21 21 20 19 17 16 15 14 13 13 13 13 13 13 13 14 14 14 15 15 15 15 15 14 14 14 14 14 14 14 14
24 24 24 23 24 23 23 23 23 23 22 22 22 22 22 20 19 18 16 14 13 12 12 12 12 12 12 13 13 13 14 14 14 14 14 14 14 13 13 13 13 13 13 13
24 24 24 24 24 23 23 23 23 23 23 21 22 22 21 20 19 18 15 13 12 12 11 11 11 12 12 12 12 13 13 13 13 13 13 13 13 13 12 12 12 12 12 12
24 24 24 23 23 23 23 22 22 21 21 22 22 22 20 19 19 17 15 13 12 11 11 11 11 11 11 11 12 12 12 12 12 13 13 12 12 12 12 12 11 11 11 11
23 23 23 23 23 23 23 22 21 20 21 22 22 21 19 18 17 15 13 12 11 11 10 10 10 10 10 11 11 11 11 11 11 12 12 11 11 11 11 11 11 10 10 10
23 23 23 23 23 23 22 22 23 22 21 21 21 20 17 16 15 14 12 11 10 10 10 9 9 10 10 10 10 10 10 11 11 11 11 10 10 10 10 10 10 9 9 9
23 22 23 23 23 22 23 22 22 21 20 20 20 20 19 16 15 14 13 11 10 9 9 9 9 9 9 9 9 9 10 10 10 10 10 10 9 9 9 9 9 8 8 8
23 21 22 22 22 22 22 22 21 22 21 20 19 19 18 17 16 14 12 10 9 9 8 8 8 8 8 8 9 9 9 9 9 9 9 9 8 8 8 8 8 7 7 7
22 22 21 22 22 22 22 21 21 20 20 20 20 18 17 17 15 13 11 9 8 8 8 8 8 8 8 8 8 8 8 8 8 8 8 7 7 7 7 7 7 6 6 7
21 21 20 21 21 21 21 21 21 21 20 20 19 17 15 15 14 12 10 9 8 8 7 7 7 7 7 7 7 7 7 7 7 7 6 6 6 6 6 6 6 6 6 6
21 21 20 20 20 21 21 21 21 20 20 20 20 18 15 14 13 11 9 8 8 7 7 7 7 6 6 6 6 6 6 6 6 6 6 5 5 5 5 5 5 5 5 5
21 21 21 21 21 21 20 20 20 20 20 20 19 18 16 14 13 11 9 8 8 7 7 6 6 6 6 6 5 5 5 5 5 5 5 5 5 5 5 5 5 4 4 5
20 20 21 20 21 20 20 20 20 19 19 19 18 17 16 13 11 10 9 8 8 7 6 6 6 6 5 5 5 5 5 5 5 5 5 5 5 5 4 4 4 4 4 4
21 20 20 20 21 20 20 20 20 19 19 18 18 16 14 13 12 10 9 8 7 7 6 6 6 5 5 5 5 5 5 5 5 5 5 5 5 4 4 4 4 4 4 4
20 20 20 20 20 19 19 19 19 19 18 18 17 15 14 12 11 10 9 8 7 7 6 6 5 5 5 5 5 5 5 5 5 5 5 5 5 4 4 4 4 4 4 4
20 20 20 20 20 20 19 19 19 18 18 17 16 14 12 10 10 9 8 8 7 6 6 6 5 5 5 5 5 5 5 5 5 5 5 5 5 4 4 4 4 4 4 4
20 20 20 20 19 19 19 19 18 18 17 16 15 13 11 11 12 10 7 7 6 6 6 5 5 5 5 5 5 5 5 5 5 5 5 4 4 4 4 4 4 4 4 4
20 20 20 20 20 20 18 18 18 18 17 14 14 13 12 12 12 9 7 6 6 6 5 5 5 5 5 5 5 5 5 5 5 5 4 4 4 4 4 4 4 4 4 4
21 21 20 20 20 19 17 18 18 16 14 13 13 12 11 9 8 7 6 6 6 5 5 5 5 5 5 5 5 5 5 4 4 4 4 4 4 4 4 4 4 4 4 4
21 21 21 20 19 15 15 15 14 14 13 12 11 10 9 8 7 6 6 6 5 5 5 5 5 5 5 5 5 5 4 4 4 4 4 4 4 4 4 4 4 4 4 5
20 18 19 18 17 15 13 13 13 13 12 11 10 9 9 7 6 6 6 5 5 5 5 5 5 5 5 4 4 4 4 4 5 5 4 4 4 4 4 4 5 5 5 5
21 19 19 18 16 14 13 13 12 11 11 10 9 9 8 7 6 6 5 5 5 5 5 5 5 5 5 5 5 5 5 5 5 5 5 5 5 5 4 4 4 4 4 4
20 20 20 20 16 17 13 12 11 10 10 9 9 8 8 7 6 6 6 5 5 5 5 5 5 5 5 5 5 5 5 5 5 5 5 5 5 5 5 5 4 4 4 4
Wind_Speed
5 7 4 1 3 4 4 6 6 4 1 3 4 3 1 0 1 3 3 4 5 6 7 7 6 5 4 4 3 2 3 4 4 4 5 5 4 4 3 2 3 4 4 4
7 6 2 2 3 5 6 7 6 3 1 4 4 4 2 1 2 4 4 5 6 7 7 8 7 6 5 4 2 2 1 3 4 4 4 4 4 3 2 2 2 2 2 3
7 0 1 4 6 7 7 8 7 5 4 6 6 7 6 5 5 6 6 7 8 8 7 7 7 7 6 5 3 2 2 2 3 4 4 5 4 3 2 2 2 3 3 3
6 3 4 7 7 7 8 5 6 7 9 7 9 8 7 8 6 5 5 6 7 7 7 7 7 8 7 6 4 3 3 3 3 4 5 6 5 4 3 3 3 4 5 5
5 4 7 8 6 7 8 5 8 10 11 10 10 9 5 8 6 5 5 6 6 7 8 9 9 8 7 7 6 5 5 4 4 4 5 5 5 4 5 6 6 5 5 7
8 5 6 6 5 5 5 6 8 9 10 11 9 9 5 5 6 6 6 6 6 7 8 9 9 9 9 8 7 7 7 7 6 6 6 7 7 7 8 7 6 5 5 6
7 6 4 4 6 6 7 8 6 7 8 7 4 6 0 3 3 6 7 7 6 7 8 8 9 9 9 9 9 9 9 8 8 8 7 7 8 9 9 8 7 6 6 6
6 5 3 3 5 5 6 8 8 8 7 4 4 4 3 5 5 7 8 8 7 7 8 9 9 9 9 9 9 9 9 9 8 9 9 9 9 7 7 8 8 7 6 7
5 3 2 2 3 6 6 7 7 10 10 8 4 4 5 6 7 8 9 8 8 7 8 8 9 9 9 9 10 9 10 10 10 10 11 11 10 10 10 10 9 8 8 8
5 7 3 3 5 5 6 6 6 7 6 7 5 5 4 7 7 8 8 7 7 7 7 8 8 9 9 9 10 11 11 12 11 11 10 10 11 11 11 10 11 10 10 10
4 6 5 5 5 5 5 6 6 8 7 7 5 0 3 5 7 8 8 7 7 7 7 7 7 8 9 9 10 10 11 12 12 12 12 12 11 11 11 11 10 10 10 10
3 5 6 4 0 2 5 5 6 7 7 7 7 1 5 4 7 9 10 9 8 8 7 7 8 9 9 10 10 10 11 11 12 12 13 12 11 11 11 11 11 10 10 10
3 4 6 5 5 5 3 3 5 6 6 7 7 1 5 6 9 9 11 10 9 8 8 8 8 9 9 9 10 11 11 11 12 12 13 12 11 12 12 11 10 10 10 9
3 4 6 5 3 2 3 3 4 7 6 6 5 1 5 7 8 9 10 10 9 9 9 8 9 9 9 10 10 11 11 11 11 12 12 12 11 11 11 11 10 9 9 9
4 5 4 4 3 3 4 5 5 5 7 7 3 1 3 7 8 10 11 11 11 10 9 9 9 9 10 10 10 10 10 10 11 12 12 11 11 10 10 10 9 8 8 9
4 4 4 4 4 4 5 4 4 4 4 3 2 0 5 8 9 10 11 12 11 10 10 10 10 10 10 10 10 10 10 10 10 11 11 10 10 10 10 9 9 9 9 9
5 4 5 4 3 6 5 2 2 2 1 2 2 2 8 8 9 11 11 11 11 11 11 11 10 10 10 10 9 10 10 9 10 10 10 9 9 9 9 9 9 9 8 8
5 5 4 3 4 4 3 3 0 0 0 1 3 7 8 8 8 8 10 11 12 12 12 11 11 11 10 10 9 9 9 9 9 9 9 9 9 9 8 8 8 8 7 7
5 5 4 4 5 3 4 3 2 2 0 3 6 9 10 11 10 7 8 10 11 12 11 11 11 11 11 10 9 9 8 8 8 9 8 8 8 8 7 8 7 6 6 6
5 6 6 5 5 3 4 5 2 3 2 6 7 11 12 10 6 6 9 11 12 12 12 12 12 11 11 10 9 9 8 8 8 8 8 7 7 7 7 7 5 5 5 5
6 6 7 6 6 1 5 4 4 4 3 8 8 11 11 5 5 12 14 13 13 13 13 13 12 11 10 9 9 9 9 9 8 7 7 7 7 7 6 6 5 4 4 5
5 4 4 4 4 1 4 4 1 4 7 8 9 10 10 12 15 16 15 15 15 15 14 13 12 11 10 9 9 9 9 8 7 7 7 7 6 5 6 6 5 4 4 4
4 2 2 2 3 6 4 4 5 5 8 9 11 12 14 15 16 16 16 15 15 15 13 12 12 12 10 9 9 9 8 7 6 6 7 6 6 6 5 5 4 4 3 3
4 1 2 2 5 6 6 6 6 7 9 11 13 15 16 17 17 16 15 15 14 14 12 11 12 12 11 10 9 8 8 6 6 6 5 5 5 6 5 3 4 4 4 4
4 6 4 3 7 8 7 7 9 11 13 14 14 15 16 18 17 16 15 15 14 13 12 11 11 11 11 10 9 8 7 6 5 5 5 5 5 6 5 6 5 5 7 6
5 5 4 2 10 8 10 10 12 14 15 16 17 16 16 16 17 17 15 14 14 13 12 12 11 11 10 9 8 7 6 5 4 4 4 4 4 4 4 5 6 7 6 5
Wind_Direction
205 229 229 261 276 295 279 280 282 291 287 266 247 231 227 62 94 98 85 80 77 73 56 43 43 48 70 76 96 141 170 164 166 174 174 173 175 169 164 155 153 158 170 184
218 224 236 265 257 255 256 262 270 263 205 258 238 233 206 126 95 93 88 77 70 63 54 43 42 47 57 66 70 80 142 162 172 176 175 166 151 137 137 112 96 107 138 172
247 306 171 251 247 252 255 264 279 277 257 237 231 233 203 158 129 103 87 78 68 57 49 44 44 44 49 51 44 52 65 106 143 153 150 135 130 126 118 105 87 64 98 115
243 240 245 258 260 268 270 277 275 256 251 248 230 254 204 180 164 134 101 76 65 57 51 48 49 44 38 36 40 55 67 76 95 129 141 147 154 152 147 126 98 75 74 81
241 242 259 270 282 277 291 298 269 258 257 263 237 251 209 181 192 159 119 89 71 61 56 51 48 46 40 38 40 48 65 72 81 104 120 131 130 126 111 99 88 72 62 67
262 259 267 284 284 267 271 263 254 246 245 247 238 247 224 188 202 163 128 101 79 67 63 56 50 48 43 40 40 47 56 60 66 84 97 108 116 116 106 98 91 79 69 64
242 230 214 242 257 220 237 262 259 239 233 243 207 242 208 109 146 153 141 114 86 70 66 57 48 47 45 42 42 48 56 58 60 71 79 91 102 108 108 106 99 92 84 76
268 251 188 221 268 282 257 267 275 283 279 267 199 228 101 86 103 120 122 113 96 74 66 59 50 47 46 46 46 51 60 64 66 74 80 81 87 93 96 96 96 89 85 80
280 289 141 223 265 271 261 256 287 283 277 271 225 157 128 122 121 124 122 114 96 78 68 63 57 52 49 52 53 56 65 70 69 73 80 80 79 84 91 92 89 87 86 85
277 282 254 212 229 224 275 287 265 262 271 268 238 214 188 164 153 145 139 124 107 93 79 70 62 59 56 58 61 62 66 73 73 73 77 83 84 86 88 89 89 89 86 84
255 266 250 226 250 270 236 241 261 271 278 287 281 126 48 161 161 158 143 127 115 103 90 81 74 69 66 66 68 67 68 74 75 76 78 80 82 86 88 87 85 86 87 86
233 271 273 259 216 285 272 276 272 275 279 279 287 91 62 123 143 147 137 129 119 108 100 92 85 78 73 71 72 71 72 77 79 81 82 80 81 83 84 85 84 85 83 81
191 249 261 212 187 200 237 265 275 277 283 280 282 132 100 117 126 133 134 132 125 116 106 97 90 84 81 79 79 78 78 81 84 85 85 83 80 81 82 83 83 81 82 83
232 256 279 303 332 305 266 271 277 278 280 284 289 179 146 139 137 135 134 134 128 122 114 106 99 93 91 87 86 87 85 87 89 89 87 85 83 82 82 82 81 81 84 87
234 254 257 271 280 272 278 285 283 283 294 297 309 290 156 155 153 145 141 139 135 131 123 116 110 105 101 97 93 93 93 91 93 93 92 90 89 88 87 86 84 84 86 87
225 257 244 238 233 247 262 270 272 279 289 289 270 341 115 133 140 145 149 149 145 140 133 125 118 113 109 107 105 103 99 98 99 97 96 96 94 91 90 91 90 88 85 84
208 232 252 257 234 253 251 259 260 269 331 295 299 110 134 145 154 157 156 153 149 141 136 131 125 120 116 113 112 110 109 109 107 105 104 102 98 94 94 95 93 90 89 87
221 236 260 272 253 259 84 82 121 233 37 37 88 123 142 140 136 142 150 148 145 141 138 134 129 124 120 118 115 112 111 110 108 105 103 101 99 95 94 93 92 93 94 93
228 237 265 270 275 276 141 158 185 250 237 112 128 130 127 125 119 116 133 141 139 138 135 132 130 128 124 120 118 114 109 107 105 102 100 99 97 95 95 92 96 99 101 100
202 232 255 270 290 303 105 122 148 246 186 134 145 146 147 157 159 143 139 134 129 130 130 130 131 130 126 125 124 119 114 108 103 99 97 96 93 88 85 85 91 98 103 102
201 222 246 266 275 327 97 130 193 262 86 139 153 153 156 160 102 128 132 130 130 130 130 133 133 130 128 128 126 119 113 105 99 97 95 93 90 87 84 83 82 93 102 100
233 238 239 259 268 111 111 172 250 61 109 137 141 144 134 111 115 124 128 130 132 133 136 137 133 128 128 130 126 116 108 104 103 101 97 94 89 85 89 87 81 83 97 115
237 308 317 348 45 89 91 83 82 110 129 134 135 132 128 126 128 129 129 131 133 134 136 137 134 130 128 128 125 118 115 112 109 106 99 95 91 87 85 86 88 95 95 90
170 166 181 148 123 120 113 107 108 118 128 131 132 133 133 130 131 130 131 133 134 135 135 137 135 133 130 130 127 123 123 120 115 108 104 105 105 103 94 80 74 69 59 61
156 175 188 161 135 135 136 128 122 119 123 126 128 132 133 133 133 133 134 136 136 136 138 138 136 133 131 131 127 127 126 127 117 107 103 102 103 98 96 82 58 51 57 41
177 189 217 199 163 158 144 137 132 129 129 130 130 128 132 135 135 135 135 137 138 139 141 140 138 135 134 134 132 129 128 127 124 118 108 100 105 105 104 110 111 69 60 81
Height
1500 1496 1491 1491 1492 1492 1493 1493 1493 1491 1490 1491 1492 1494 1495 1497 1498 1499 1501 1502 1503 1504 1505 1505 1505 1506 1506 1507 1509 1511 1512 1513 1516 1518 1520 1522 1524 1526 1528 1531 1533 1534 1536 1538
1495 1491 1489 1491 1492 1493 1492 1493 1490 1488 1489 1491 1492 1494 1495 1498 1500 1502 1503 1504 1504 1505 1506 1506 1505 1505 1506 1506 1508 1509 1510 1512 1513 1516 1518 1519 1521 1523 1525 1528 1529 1531 1532 1535
1490 1487 1490 1491 1490 1491 1489 1488 1488 1489 1489 1488 1491 1494 1493 1497 1500 1503 1505 1505 1506 1507 1506 1506 1506 1505 1506 1506 1507 1508 1509 1510 1512 1513 1515 1517 1518 1520 1522 1524 1526 1527 1529 1532
1486 1486 1489 1488 1487 1487 1486 1483 1486 1487 1488 1486 1486 1492 1488 1491 1497 1501 1505 1507 1507 1508 1508 1508 1507 1506 1506 1506 1507 1507 1508 1509 1510 1511 1512 1514 1516 1517 1519 1521 1523 1525 1526 1528
1484 1484 1486 1486 1484 1484 1483 1483 1484 1483 1483 1483 1482 1486 1484 1488 1494 1499 1504 1507 1509 1510 1509 1509 1508 1508 1507 1507 1507 1507 1507 1508 1509 1509 1510 1512 1514 1516 1517 1519 1520 1522 1523 1525
1482 1483 1484 1483 1483 1484 1483 1483 1481 1480 1479 1488 1479 1483 1484 1485 1490 1497 1504 1508 1510 1510 1510 1509 1509 1509 1508 1508 1508 1507 1507 1507 1508 1509 1510 1511 1512 1514 1516 1517 1518 1521 1522 1523
1480 1478 1481 1483 1482 1482 1482 1484 1487 1486 1484 1481 1474 1481 1486 1487 1490 1496 1503 1508 1510 1511 1511 1511 1510 1510 1509 1509 1508 1508 1508 1508 1508 1509 1509 1511 1512 1515 1516 1517 1518 1520 1522 1522
1481 1481 1478 1480 1481 1480 1479 1482 1490 1493 1485 1477 1475 1482 1489 1493 1496 1500 1505 1508 1511 1512 1512 1512 1511 1511 1511 1510 1510 1509 1509 1509 1510 1510 1511 1512 1513 1515 1516 1518 1519 1521 1522 1523
1479 1481 1479 1481 1481 1480 1478 1477 1474 1479 1478 1482 1479 1484 1493 1496 1500 1503 1507 1510 1511 1513 1513 1513 1513 1513 1512 1512 1511 1511 1510 1510 1511 1511 1512 1513 1514 1516 1516 1518 1520 1522 1523 1524
1477 1483 1477 1479 1480 1480 1478 1475 1478 1481 1488 1487 1479 1481 1485 1494 1499 1504 1507 1510 1513 1514 1515 1515 1515 1514 1514 1513 1513 1512 1512 1512 1512 1513 1513 1514 1516 1517 1518 1520 1521 1523 1525 1526
1478 1483 1479 1477 1478 1476 1478 1478 1478 1475 1475 1483 1486 1488 1486 1489 1496 1502 1507 1511 1514 1515 1516 1516 1517 1516 1516 1515 1515 1515 1515 1514 1515 1515 1516 1517 1518 1519 1520 1521 1523 1525 1526 1528
1479 1479 1479 1476 1475 1477 1476 1476 1477 1483 1480 1477 1480 1492 1490 1491 1496 1502 1508 1512 1515 1516 1517 1518 1518 1518 1518 1517 1517 1517 1517 1517 1517 1518 1518 1520 1521 1522 1523 1524 1526 1528 1529 1530
1480 1482 1484 1480 1482 1479 1477 1476 1476 1477 1478 1480 1482 1492 1494 1495 1500 1505 1509 1513 1515 1517 1518 1520 1520 1520 1520 1520 1520 1520 1520 1520 1521 1522 1523 1524 1525 1526 1526 1527 1529 1531 1532 1533
1480 1479 1482 1485 1480 1476 1477 1476 1475 1476 1478 1478 1478 1485 1493 1498 1502 1507 1511 1514 1516 1518 1520 1521 1522 1522 1523 1523 1523 1523 1524 1524 1525 1526 1527 1528 1529 1530 1530 1531 1533 1534 1536 1537
1479 1477 1476 1476 1475 1476 1477 1477 1476 1477 1476 1477 1478 1482 1490 1497 1503 1507 1511 1514 1517 1519 1521 1522 1524 1525 1525 1526 1526 1527 1527 1528 1529 1530 1531 1532 1533 1534 1535 1536 1537 1538 1539 1540
1478 1477 1476 1477 1475 1475 1477 1476 1476 1478 1477 1478 1481 1487 1492 1499 1504 1508 1511 1514 1517 1520 1522 1524 1525 1527 1528 1529 1530 1530 1531 1532 1533 1534 1535 1537 1538 1538 1539 1540 1541 1542 1543 1543
1474 1477 1478 1477 1473 1476 1477 1475 1476 1478 1478 1480 1482 1488 1496 1500 1504 1508 1511 1514 1517 1520 1523 1525 1527 1529 1530 1531 1533 1534 1535 1537 1538 1538 1539 1541 1541 1542 1543 1544 1545 1545 1545 1546
1475 1476 1474 1474 1478 1484 1479 1477 1477 1479 1481 1482 1486 1491 1497 1501 1505 1509 1512 1514 1518 1521 1524 1526 1529 1531 1533 1535 1536 1538 1539 1541 1542 1542 1543 1544 1545 1546 1547 1547 1548 1548 1548 1549
1474 1475 1474 1474 1474 1473 1477 1477 1478 1480 1482 1486 1489 1495 1500 1504 1507 1511 1514 1516 1519 1522 1525 1528 1531 1533 1536 1538 1539 1541 1543 1544 1545 1546 1547 1548 1549 1549 1550 1550 1550 1551 1551 1552
1474 1473 1473 1473 1478 1478 1476 1477 1480 1481 1483 1489 1492 1496 1501 1503 1504 1512 1515 1517 1520 1524 1527 1530 1533 1536 1538 1541 1542 1544 1546 1547 1548 1549 1550 1551 1551 1552 1552 1553 1553 1553 1554 1554
1471 1472 1471 1471 1473 1468 1476 1479 1481 1482 1484 1490 1493 1497 1501 1502 1504 1511 1515 1518 1522 1526 1529 1532 1535 1538 1541 1543 1545 1547 1549 1550 1551 1552 1553 1553 1554 1554 1555 1555 1555 1555 1556 1556
1465 1466 1469 1469 1472 1474 1480 1479 1480 1485 1488 1491 1495 1499 1502 1505 1508 1512 1516 1520 1524 1528 1532 1535 1537 1541 1543 1546 1548 1550 1551 1553 1554 1555 1555 1556 1556 1557 1557 1557 1557 1557 1558 1558
1462 1464 1462 1467 1475 1481 1482 1483 1487 1488 1490 1494 1497 1501 1504 1507 1511 1515 1519 1523 1527 1530 1534 1537 1540 1543 1546 1548 1551 1552 1554 1555 1556 1557 1557 1558 1558 1558 1558 1559 1559 1560 1560 1560
1465 1469 1468 1471 1477 1482 1485 1487 1488 1490 1493 1496 1499 1502 1506 1509 1513 1517 1521 1526 1530 1533 1537 1540 1543 1545 1548 1551 1553 1555 1556 1557 1558 1559 1559 1560 1560 1560 1561 1561 1562 1562 1562 1562
1461 1467 1467 1471 1479 1484 1487 1488 1490 1492 1495 1498 1502 1505 1508 1512 1516 1520 1524 1528 1532 1536 1539 1543 1545 1548 1551 1553 1555 1557 1558 1559 1560 1561 1561 1562 1562 1562 1562 1563 1562 1563 1563 1562
1461 1463 1464 1464 1474 1477 1485 1489 1492 1494 1497 1500 1504 1508 1512 1515 1519 1523 1527 1531 1535 1538 1542 1545 1548 1550 1553 1555 1557 1559 1560 1561 1562 1563 1563 1563 1564 1564 1564 1564 1564 1564 1564 1564